Weather History for KIYA - January, 2013

Change the Weather History Date:

Monday, January 28, 2013

  Actual Average (KARA) Record (KARA)
Temperature  
Mean Temperature 70 °F 53 °F  
Max Temperature 75 °F 63 °F 80 °F (1957)
Min Temperature 66 °F 43 °F 26 °F (2004)
Degree Days  
Heating Degree Days 0 12  
Month to date heating degree days 357  
Since 1 July heating degree days 904  
Cooling Degree Days 6 0  
Month to date cooling degree days 9  
Year to date cooling degree days 9  
Growing Degree Days 20 (Base 50)    
Moisture  
Dew Point 68 °F    
Average Humidity 94    
Maximum Humidity 100    
Minimum Humidity 82    
Precipitation  
Precipitation 0.00 in 0.17 in 1.14 in (1997)
Month to date precipitation 4.67  
Year to date precipitation 4.67  
Sea Level Pressure  
Sea Level Pressure 30.15 in    
Wind  
Wind Speed 10 mph (SE)    
Max Wind Speed 18 mph    
Max Gust Speed 26 mph    
Visibility 10 miles    
Events      
T = Trace of Precipitation, MM = Missing Value Source: NWS Daily Summary

Daily Weather History Graph

Daily Weather History Graph

Search for Another Location

Airport or City:

Trip Planner

Search our weather history database for the weather conditions in past years. The results will help you decide how hot, cold, wet, or windy it might be!

Date:

Astronomy

Jan. 28, 2013 Rise Set
Actual Time 7:00 AM CST 5:42 PM CST
Civil Twilight 6:35 AM CST 6:07 PM CST
Nautical Twilight 6:06 AM CST 6:36 PM CST
Astronomical Twilight 5:38 AM CST 7:04 PM CST
Moon 7:25 PM CST 7:36 AM CST
Length of Visible Light 11h 32m
Length of Day
10h 41m
Full, 98% of the Moon is Illuminated
Jan 28
Full
Feb 3
Last Quarter
Feb 10
New
Feb 17
First Quarter
Feb 25
Full

Hourly Weather History & Observations

Time (CST) Temp. Dew Point Humidity Pressure Visibility Wind Dir Wind Speed Gust Speed Precip Events Conditions
12:15 AM 67.1 °F 65.7 °F 95% 30.18 in 10.0 mi SE 10.4 mph - N/A   Mostly Cloudy
12:35 AM 66.7 °F 65.7 °F 96% 30.18 in 10.0 mi SE 9.2 mph - N/A   Scattered Clouds
12:55 AM 66.2 °F 65.5 °F 98% 30.18 in 10.0 mi SE 8.1 mph - N/A   Scattered Clouds
1:15 AM 66.6 °F 65.8 °F 98% 30.17 in 10.0 mi SE 10.4 mph - N/A   Mostly Cloudy
1:35 AM 66.7 °F 65.8 °F 97% 30.17 in 10.0 mi SE 11.5 mph 16.1 mph N/A   Overcast
1:55 AM 66.7 °F 65.8 °F 97% 30.17 in 10.0 mi SE 6.9 mph - N/A   Overcast
2:15 AM 66.7 °F 65.8 °F 97% 30.17 in 10.0 mi SE 6.9 mph - N/A   Overcast
2:35 AM 67.1 °F 65.7 °F 95% 30.17 in 10.0 mi SE 9.2 mph - N/A   Overcast
2:55 AM 67.1 °F 65.7 °F 95% 30.16 in 10.0 mi SE 10.4 mph - N/A   Overcast
3:15 AM 67.1 °F 65.7 °F 95% 30.17 in 10.0 mi SE 5.8 mph - N/A   Overcast
3:35 AM 67.1 °F 65.8 °F 96% 30.16 in 10.0 mi SE 6.9 mph - N/A   Overcast
3:55 AM 67.1 °F 65.8 °F 96% 30.15 in 10.0 mi SE 9.2 mph - N/A   Overcast
4:15 AM 66.6 °F 65.7 °F 97% 30.16 in 10.0 mi SE 4.6 mph - N/A   Overcast
4:35 AM 66.4 °F 65.8 °F 98% 30.16 in 10.0 mi ESE 5.8 mph - N/A   Overcast
4:55 AM 66.7 °F 66.2 °F 98% 30.16 in 10.0 mi SE 6.9 mph - N/A   Overcast
5:15 AM 66.7 °F 66.2 °F 98% 30.16 in 10.0 mi ESE 6.9 mph - N/A   Overcast
5:35 AM 66.9 °F 66.2 °F 98% 30.16 in 10.0 mi ESE 8.1 mph - N/A   Overcast
5:55 AM 67.1 °F 66.6 °F 98% 30.16 in 10.0 mi ESE 8.1 mph - N/A   Overcast
6:15 AM 67.1 °F 66.4 °F 98% 30.17 in 10.0 mi ESE 6.9 mph - N/A   Overcast
6:35 AM 67.1 °F 66.6 °F 98% 30.18 in 10.0 mi ESE 4.6 mph - N/A   Overcast
6:55 AM 67.3 °F 67.1 °F 99% 30.18 in 10.0 mi East 4.6 mph - N/A   Overcast
7:35 AM 67.5 °F 67.1 °F 99% 30.19 in 10.0 mi ESE 5.8 mph - N/A   Overcast
7:55 AM 68.0 °F 67.5 °F 98% 30.19 in 10.0 mi ESE 6.9 mph - N/A   Overcast
8:15 AM 68.4 °F 67.6 °F 98% 30.20 in 10.0 mi ESE 5.8 mph - N/A   Overcast
8:35 AM 68.5 °F 67.6 °F 97% 30.21 in 10.0 mi East 4.6 mph - N/A   Overcast
8:55 AM 69.4 °F 68.0 °F 95% 30.21 in 10.0 mi ESE 4.6 mph - N/A   Overcast
9:35 AM 70.7 °F 68.5 °F 93% 30.22 in 10.0 mi ESE 4.6 mph - N/A   Overcast
9:55 AM 71.6 °F 69.1 °F 92% 30.22 in 10.0 mi SE 9.2 mph - N/A   Overcast
10:15 AM 71.8 °F 69.3 °F 92% 30.22 in 10.0 mi ESE 9.2 mph - N/A   Overcast
10:35 AM 72.5 °F 69.6 °F 91% 30.22 in 10.0 mi SE 10.4 mph - N/A   Overcast
10:55 AM 73.0 °F 69.8 °F 90% 30.21 in 10.0 mi SE 11.5 mph 16.1 mph N/A   Overcast
11:15 AM 73.4 °F 69.4 °F 87% 30.21 in 10.0 mi SE 11.5 mph 19.6 mph N/A   Overcast
11:35 AM 73.8 °F 69.4 °F 86% 30.20 in 10.0 mi SE 15.0 mph 20.7 mph N/A   Overcast
11:55 AM 74.3 °F 69.6 °F 85% 30.19 in 10.0 mi SE 15.0 mph 20.7 mph N/A   Overcast
12:15 PM 73.9 °F 69.4 °F 86% 30.18 in 10.0 mi SE 12.7 mph 23.0 mph N/A   Overcast
12:35 PM 75.2 °F 69.8 °F 83% 30.16 in 10.0 mi SSE 12.7 mph 17.3 mph N/A   Overcast
12:55 PM 75.6 °F 69.8 °F 82% 30.15 in 10.0 mi SE 11.5 mph 19.6 mph N/A   Overcast
1:15 PM 75.0 °F 69.8 °F 84% 30.14 in 10.0 mi SE 17.3 mph 24.2 mph N/A   Overcast
1:35 PM 74.7 °F 69.8 °F 85% 30.13 in 10.0 mi SE 12.7 mph 24.2 mph N/A   Overcast
1:55 PM 74.7 °F 70.0 °F 85% 30.13 in 10.0 mi SE 13.8 mph 21.9 mph N/A   Overcast
2:15 PM 74.5 °F 70.0 °F 86% 30.13 in 10.0 mi SE 16.1 mph 21.9 mph N/A   Overcast
2:35 PM 74.5 °F 69.8 °F 85% 30.12 in 10.0 mi SE 18.4 mph 26.5 mph N/A   Overcast
2:55 PM 74.5 °F 69.8 °F 85% 30.12 in 10.0 mi SE 15.0 mph 23.0 mph N/A   Overcast
3:15 PM 74.7 °F 69.8 °F 85% 30.11 in 10.0 mi SE 15.0 mph 25.3 mph N/A   Overcast
3:35 PM 74.3 °F 69.8 °F 86% 30.11 in 10.0 mi SE 12.7 mph - N/A   Overcast
3:55 PM 74.3 °F 69.3 °F 84% 30.12 in 10.0 mi SE 11.5 mph 18.4 mph N/A   Overcast
4:15 PM 73.9 °F 69.3 °F 85% 30.11 in 10.0 mi SE 13.8 mph 18.4 mph N/A   Overcast
4:35 PM 73.4 °F 69.4 °F 87% 30.11 in 10.0 mi SSE 13.8 mph 18.4 mph N/A   Overcast
4:55 PM 72.0 °F 69.1 °F 91% 30.11 in 10.0 mi SE 10.4 mph - N/A   Scattered Clouds
5:15 PM 71.6 °F 69.3 °F 92% 30.11 in 10.0 mi SE 9.2 mph - N/A   Mostly Cloudy
5:35 PM 70.7 °F 69.3 °F 95% 30.11 in 10.0 mi SE 8.1 mph - N/A   Mostly Cloudy
5:55 PM 70.3 °F 69.3 °F 96% 30.11 in 10.0 mi SE 10.4 mph - N/A   Overcast
6:15 PM 69.8 °F 68.9 °F 97% 30.10 in 10.0 mi SE 10.4 mph - N/A   Mostly Cloudy
6:35 PM 69.3 °F 68.9 °F 99% 30.11 in 10.0 mi SE 8.1 mph - N/A   Clear
6:55 PM 69.1 °F 68.9 °F 99% 30.11 in 10.0 mi SE 8.1 mph - N/A   Clear
7:15 PM 68.9 °F 68.9 °F 100% 30.10 in 10.0 mi SE 8.1 mph - N/A   Clear
7:35 PM 68.5 °F 68.5 °F 100% 30.10 in 10.0 mi SE 9.2 mph - N/A   Clear
7:55 PM 68.4 °F 68.4 °F 100% 30.10 in 10.0 mi SE 9.2 mph - N/A   Scattered Clouds
8:15 PM 68.9 °F 68.9 °F 100% 30.11 in 10.0 mi SE 10.4 mph - N/A   Mostly Cloudy
8:35 PM 69.4 °F 69.4 °F 100% 30.11 in 10.0 mi ESE 10.4 mph 16.1 mph N/A   Overcast
8:55 PM 69.8 °F 69.8 °F 100% 30.10 in 10.0 mi SE 13.8 mph 17.3 mph N/A   Overcast
9:15 PM 69.8 °F 69.8 °F 100% 30.10 in 10.0 mi SE 13.8 mph 18.4 mph N/A   Overcast
9:35 PM 69.8 °F 69.8 °F 100% 30.10 in 10.0 mi SE 11.5 mph 18.4 mph N/A   Overcast
9:55 PM 70.0 °F 70.0 °F 100% 30.10 in 10.0 mi SE 11.5 mph 17.3 mph N/A   Overcast
10:15 PM 70.0 °F 70.0 °F 100% 30.09 in 10.0 mi SE 12.7 mph 19.6 mph N/A   Overcast
10:35 PM 69.8 °F 69.8 °F 100% 30.09 in 7.0 mi SE 10.4 mph 18.4 mph N/A   Overcast
10:55 PM 69.4 °F 69.4 °F 100% 30.08 in 7.0 mi SE 11.5 mph 18.4 mph N/A   Overcast
11:15 PM 69.1 °F 69.1 °F 100% 30.08 in 3.0 mi SE 11.5 mph 20.7 mph N/A   Overcast
11:35 PM 68.9 °F 68.9 °F 100% 30.08 in 1.8 mi SE 11.5 mph 17.3 mph N/A   Overcast
11:55 PM 68.4 °F 68.4 °F 100% 30.08 in 1.2 mi SE 10.4 mph 19.6 mph N/A   Overcast